User: anonymous   Login
Location: Solon
(41.3849°N, 81.4081°W)
Time: 01:24:15
(UTC-04:00)
Language:

CZ-2C R/B - Orbit

View from above orbital plane
View from above orbital plane
View from above satellite
View from above satellite

Ground track
Ground track

The orbit data is extracted from the following two-line orbital elements,

1 28480U 04046B   15215.00205293  .00000063  00000-0  38717-4 0  9990
2 28480 098.1469 345.6206 0143478 084.4937 027.7142 14.25520834556754
Epoch (UTC): 03 August 2015 00:02:57
Eccentricity: 0.0143478
inclination: 98.1469°
perigee height: 703 km
apogee height: 910 km
right ascension of ascending node: 345.6206°
argument of perigee: 84.4937°
revolutions per day: 14.25520834
mean anomaly at epoch: 27.7142°
orbit number at epoch: 55675

The dashed part of the orbit path shows where the satellite is in the earth's shadow,  

DLR